Time,TemperatureF,DewpointF,PressureIn,WindDirection,WindDirectionDegrees,WindSpeedMPH,WindSpeedGustMPH,Humidity,HourlyPrecipIn,Conditions,Clouds,dailyrainin,SoftwareType,DateUTC
2013-02-04 00:00:00,42.0,40.9,30.15,ESE,111,0.0,2.0,96,0.00,,,0.00,WeatherCatV1.10B1784,2013-02-04 08:00:00,
2013-02-04 00:05:00,42.0,40.9,30.15,SSW,207,2.0,2.0,96,0.00,,,0.00,WeatherCatV1.10B1784,2013-02-04 08:05:00,
2013-02-04 00:10:00,41.9,40.8,30.15,SSE,154,0.0,1.0,96,0.00,,,0.00,WeatherCatV1.10B1784,2013-02-04 08:10:00,
2013-02-04 00:15:00,41.9,40.8,30.15,SSE,154,0.0,0.0,96,0.00,,,0.00,WeatherCatV1.10B1784,2013-02-04 08:15:00,
2013-02-04 00:20:00,41.8,40.7,30.15,SSE,153,0.0,0.0,96,0.00,,,0.00,WeatherCatV1.10B1784,2013-02-04 08:20:00,
2013-02-04 00:25:00,41.8,40.7,30.14,SE,134,0.0,1.0,96,0.00,,,0.00,WeatherCatV1.10B1784,2013-02-04 08:25:00,
2013-02-04 00:30:00,41.8,40.7,30.15,SW,217,0.0,1.0,96,0.00,,,0.00,WeatherCatV1.10B1784,2013-02-04 08:30:00,
2013-02-04 00:35:00,41.8,40.7,30.15,ESE,119,1.0,2.0,96,0.00,,,0.00,WeatherCatV1.10B1784,2013-02-04 08:35:00,
2013-02-04 00:40:00,41.7,40.9,30.14,South,170,1.0,2.0,97,0.00,,,0.00,WeatherCatV1.10B1784,2013-02-04 08:40:00,
2013-02-04 00:45:00,41.8,41.0,30.13,SSE,166,0.0,1.0,97,0.00,,,0.00,WeatherCatV1.10B1784,2013-02-04 08:45:00,
2013-02-04 00:50:00,41.7,40.9,30.13,ESE,108,2.0,2.0,97,0.00,,,0.00,WeatherCatV1.10B1784,2013-02-04 08:50:00,
2013-02-04 00:55:00,41.9,41.1,30.13,ENE,67,2.0,2.0,97,0.00,,,0.00,WeatherCatV1.10B1784,2013-02-04 08:55:00,
2013-02-04 01:00:00,42.0,41.2,30.13,ESE,115,1.0,4.0,97,0.00,,,0.00,WeatherCatV1.10B1784,2013-02-04 09:00:00,
2013-02-04 01:05:00,42.1,41.3,30.12,SE,124,0.0,2.0,97,0.00,,,0.00,WeatherCatV1.10B1784,2013-02-04 09:05:00,
2013-02-04 01:10:00,42.1,41.3,30.12,SE,127,3.0,5.0,97,0.00,,,0.00,WeatherCatV1.10B1784,2013-02-04 09:10:00,
2013-02-04 01:15:00,42.2,41.4,30.12,ESE,111,1.0,2.0,97,0.00,,,0.00,WeatherCatV1.10B1784,2013-02-04 09:15:00,
2013-02-04 01:20:00,42.1,41.3,30.13,SE,124,0.0,4.0,97,0.00,,,0.00,WeatherCatV1.10B1784,2013-02-04 09:20:00,
2013-02-04 01:25:00,42.1,41.3,30.13,SE,134,0.0,3.0,97,0.00,,,0.00,WeatherCatV1.10B1784,2013-02-04 09:25:00,
2013-02-04 01:30:00,42.1,41.3,30.13,ESE,110,1.0,2.0,97,0.00,,,0.00,WeatherCatV1.10B1784,2013-02-04 09:30:00,
2013-02-04 01:35:00,42.0,41.2,30.12,SSE,150,0.0,0.0,97,0.00,,,0.00,WeatherCatV1.10B1784,2013-02-04 09:35:00,
2013-02-04 01:40:00,42.1,41.3,30.12,East,92,0.0,3.0,97,0.00,,,0.00,WeatherCatV1.10B1784,2013-02-04 09:40:00,
2013-02-04 01:45:00,42.1,41.3,30.12,ESE,110,4.0,5.0,97,0.00,,,0.00,WeatherCatV1.10B1784,2013-02-04 09:45:00,
2013-02-04 01:50:00,42.2,41.4,30.12,SSE,154,2.0,3.0,97,0.00,,,0.00,WeatherCatV1.10B1784,2013-02-04 09:50:00,
2013-02-04 01:55:00,42.2,41.4,30.13,SSE,150,0.0,2.0,97,0.00,,,0.00,WeatherCatV1.10B1784,2013-02-04 09:55:00,
2013-02-04 02:00:00,42.2,41.4,30.13,SSE,150,0.0,1.0,97,0.00,,,0.00,WeatherCatV1.10B1784,2013-02-04 10:00:00,
2013-02-04 02:05:00,42.2,41.4,30.14,SSE,151,0.0,0.0,97,0.00,,,0.00,WeatherCatV1.10B1784,2013-02-04 10:05:00,
2013-02-04 02:10:00,42.2,41.4,30.14,SE,124,3.0,3.0,97,0.00,,,0.00,WeatherCatV1.10B1784,2013-02-04 10:10:00,
2013-02-04 02:15:00,42.2,41.4,30.14,SSW,207,0.0,3.0,97,0.00,,,0.00,WeatherCatV1.10B1784,2013-02-04 10:15:00,
2013-02-04 02:20:00,42.1,41.3,30.13,ESE,109,1.0,1.0,97,0.00,,,0.00,WeatherCatV1.10B1784,2013-02-04 10:20:00,
2013-02-04 02:25:00,42.0,41.2,30.13,ENE,57,2.0,2.0,97,0.00,,,0.00,WeatherCatV1.10B1784,2013-02-04 10:25:00,
2013-02-04 02:30:00,42.1,41.3,30.14,East,86,0.0,1.0,97,0.00,,,0.00,WeatherCatV1.10B1784,2013-02-04 10:30:00,
2013-02-04 02:35:00,42.0,41.2,30.14,SW,224,0.0,2.0,97,0.00,,,0.00,WeatherCatV1.10B1784,2013-02-04 10:35:00,
2013-02-04 02:40:00,41.9,41.1,30.14,SW,224,0.0,0.0,97,0.00,,,0.00,WeatherCatV1.10B1784,2013-02-04 10:40:00,
2013-02-04 02:45:00,41.9,41.1,30.13,SE,134,1.0,1.0,97,0.00,,,0.00,WeatherCatV1.10B1784,2013-02-04 10:45:00,
2013-02-04 02:50:00,41.8,41.0,30.13,SE,129,0.0,2.0,97,0.00,,,0.00,WeatherCatV1.10B1784,2013-02-04 10:50:00,
2013-02-04 02:52:00,41.8,41.0,30.13,SE,144,1.0,2.0,97,0.00,,,0.00,WeatherCatV1.10B1784,2013-02-04 10:52:00,
2013-02-04 02:57:00,41.8,41.0,30.12,SE,136,1.0,3.0,97,0.00,,,0.00,WeatherCatV1.10B1784,2013-02-04 10:57:00,
2013-02-04 03:02:00,41.9,41.1,30.12,ESE,119,3.0,3.0,97,0.00,,,0.00,WeatherCatV1.10B1784,2013-02-04 11:02:00,
2013-02-04 03:07:00,42.0,41.2,30.12,SE,131,3.0,6.0,97,0.00,,,0.00,WeatherCatV1.10B1784,2013-02-04 11:07:00,
2013-02-04 03:12:00,42.2,41.4,30.12,ESE,108,5.0,7.0,97,0.00,,,0.00,WeatherCatV1.10B1784,2013-02-04 11:12:00,
2013-02-04 03:17:00,42.2,41.4,30.12,ESE,121,0.0,4.0,97,0.00,,,0.00,WeatherCatV1.10B1784,2013-02-04 11:17:00,
2013-02-04 03:22:00,42.1,41.3,30.12,East,94,0.0,3.0,97,0.00,,,0.00,WeatherCatV1.10B1784,2013-02-04 11:22:00,
2013-02-04 03:27:00,42.0,41.2,30.12,SSE,153,4.0,8.0,97,0.00,,,0.00,WeatherCatV1.10B1784,2013-02-04 11:27:00,
2013-02-04 03:32:00,42.0,41.2,30.12,SSE,157,2.0,4.0,97,0.00,,,0.00,WeatherCatV1.10B1784,2013-02-04 11:32:00,
2013-02-04 03:37:00,41.9,41.1,30.11,ESE,112,0.0,2.0,97,0.00,,,0.00,WeatherCatV1.10B1784,2013-02-04 11:37:00,
2013-02-04 03:42:00,41.8,41.0,30.12,SSW,203,0.0,0.0,97,0.00,,,0.00,WeatherCatV1.10B1784,2013-02-04 11:42:00,
2013-02-04 03:47:00,41.7,40.9,30.12,SSE,165,2.0,3.0,97,0.00,,,0.00,WeatherCatV1.10B1784,2013-02-04 11:47:00,
2013-02-04 03:52:00,41.8,41.0,30.12,ESE,105,0.0,0.0,97,0.00,,,0.00,WeatherCatV1.10B1784,2013-02-04 11:52:00,
2013-02-04 03:57:00,41.7,40.9,30.11,SW,217,1.0,1.0,97,0.00,,,0.00,WeatherCatV1.10B1784,2013-02-04 11:57:00,
2013-02-04 04:02:00,41.7,40.9,30.11,SW,220,1.0,1.0,97,0.00,,,0.00,WeatherCatV1.10B1784,2013-02-04 12:02:00,
2013-02-04 04:07:00,41.6,40.8,30.11,ESE,106,1.0,1.0,97,0.00,,,0.00,WeatherCatV1.10B1784,2013-02-04 12:07:00,
2013-02-04 04:12:00,41.6,40.8,30.11,SE,132,2.0,3.0,97,0.00,,,0.00,WeatherCatV1.10B1784,2013-02-04 12:12:00,
2013-02-04 04:17:00,41.6,40.8,30.11,NW,319,1.0,1.0,97,0.00,,,0.00,WeatherCatV1.10B1784,2013-02-04 12:17:00,
2013-02-04 04:22:00,41.6,40.8,30.11,WNW,288,0.0,2.0,97,0.00,,,0.00,WeatherCatV1.10B1784,2013-02-04 12:22:00,
2013-02-04 04:27:00,41.6,40.8,30.11,NNW,335,1.0,1.0,97,0.00,,,0.00,WeatherCatV1.10B1784,2013-02-04 12:27:00,
2013-02-04 04:32:00,41.7,40.9,30.11,NW,311,0.0,3.0,97,0.00,,,0.00,WeatherCatV1.10B1784,2013-02-04 12:32:00,
2013-02-04 04:37:00,41.8,41.0,30.11,SE,134,1.0,3.0,97,0.00,,,0.00,WeatherCatV1.10B1784,2013-02-04 12:37:00,
2013-02-04 04:42:00,41.9,41.1,30.11,ESE,109,1.0,2.0,97,0.00,,,0.00,WeatherCatV1.10B1784,2013-02-04 12:42:00,
2013-02-04 04:47:00,41.9,41.1,30.11,ESE,121,0.0,1.0,97,0.00,,,0.00,WeatherCatV1.10B1784,2013-02-04 12:47:00,
2013-02-04 04:52:00,41.9,40.8,30.11,SW,222,2.0,2.0,96,0.00,,,0.00,WeatherCatV1.10B1784,2013-02-04 12:52:00,
2013-02-04 04:57:00,41.8,40.7,30.11,SE,138,1.0,2.0,96,0.00,,,0.00,WeatherCatV1.10B1784,2013-02-04 12:57:00,
2013-02-04 05:02:00,41.7,40.6,30.11,SE,138,0.0,0.0,96,0.00,,,0.00,WeatherCatV1.10B1784,2013-02-04 13:02:00,
2013-02-04 05:07:00,41.6,40.5,30.11,SE,139,0.0,1.0,96,0.00,,,0.00,WeatherCatV1.10B1784,2013-02-04 13:07:00,
2013-02-04 05:12:00,41.5,40.4,30.11,WSW,245,0.0,1.0,96,0.00,,,0.00,WeatherCatV1.10B1784,2013-02-04 13:12:00,
2013-02-04 05:17:00,41.6,40.5,30.10,WSW,255,0.0,1.0,96,0.00,,,0.00,WeatherCatV1.10B1784,2013-02-04 13:17:00,
2013-02-04 05:22:00,41.6,40.8,30.10,SE,145,1.0,2.0,97,0.00,,,0.00,WeatherCatV1.10B1784,2013-02-04 13:22:00,
2013-02-04 05:27:00,41.8,41.0,30.09,East,92,3.0,5.0,97,0.00,,,0.00,WeatherCatV1.10B1784,2013-02-04 13:27:00,
2013-02-04 05:32:00,42.0,41.2,30.09,ESE,118,3.0,6.0,97,0.00,,,0.00,WeatherCatV1.10B1784,2013-02-04 13:32:00,
2013-02-04 05:37:00,41.9,41.1,30.10,ESE,103,2.0,2.0,97,0.00,,,0.00,WeatherCatV1.10B1784,2013-02-04 13:37:00,
2013-02-04 05:42:00,41.9,41.1,30.09,SSW,207,0.0,4.0,97,0.00,,,0.00,WeatherCatV1.10B1784,2013-02-04 13:42:00,
2013-02-04 05:47:00,41.7,40.9,30.09,SW,217,2.0,6.0,97,0.00,,,0.00,WeatherCatV1.10B1784,2013-02-04 13:47:00,
2013-02-04 05:52:00,41.7,40.9,30.09,SE,134,0.0,4.0,97,0.00,,,0.00,WeatherCatV1.10B1784,2013-02-04 13:52:00,
2013-02-04 05:57:00,41.6,40.8,30.09,SSE,151,1.0,3.0,97,0.00,,,0.00,WeatherCatV1.10B1784,2013-02-04 13:57:00,
2013-02-04 06:02:00,41.6,40.8,30.09,South,174,1.0,4.0,97,0.00,,,0.00,WeatherCatV1.10B1784,2013-02-04 14:02:00,
2013-02-04 06:07:00,41.6,40.8,30.09,East,82,4.0,6.0,97,0.00,,,0.00,WeatherCatV1.10B1784,2013-02-04 14:07:00,
2013-02-04 06:12:00,41.5,40.7,30.09,South,181,0.0,0.0,97,0.00,,,0.00,WeatherCatV1.10B1784,2013-02-04 14:12:00,
2013-02-04 06:17:00,41.4,40.6,30.09,SSW,195,1.0,1.0,97,0.00,,,0.00,WeatherCatV1.10B1784,2013-02-04 14:17:00,
2013-02-04 06:22:00,41.3,40.5,30.09,SSW,195,0.0,1.0,97,0.00,,,0.00,WeatherCatV1.10B1784,2013-02-04 14:22:00,
2013-02-04 06:27:00,41.1,40.3,30.09,SSE,153,0.0,0.0,97,0.00,,,0.00,WeatherCatV1.10B1784,2013-02-04 14:27:00,
2013-02-04 06:32:00,41.1,40.3,30.08,ENE,77,0.0,0.0,97,0.00,,,0.00,WeatherCatV1.10B1784,2013-02-04 14:32:00,
2013-02-04 06:37:00,41.0,40.2,30.08,South,177,2.0,2.0,97,0.00,,,0.00,WeatherCatV1.10B1784,2013-02-04 14:37:00,
2013-02-04 06:42:00,40.9,40.1,30.08,SSW,204,0.0,1.0,97,0.00,,,0.00,WeatherCatV1.10B1784,2013-02-04 14:42:00,
2013-02-04 06:47:00,41.0,40.2,30.08,ESE,120,2.0,2.0,97,0.00,,,0.00,WeatherCatV1.10B1784,2013-02-04 14:47:00,
2013-02-04 06:52:00,41.3,40.5,30.08,East,81,0.0,1.0,97,0.00,,,0.00,WeatherCatV1.10B1784,2013-02-04 14:52:00,
2013-02-04 06:57:00,41.4,40.6,30.08,SSW,198,1.0,1.0,97,0.00,,,0.00,WeatherCatV1.10B1784,2013-02-04 14:57:00,
2013-02-04 07:02:00,41.4,40.6,30.08,SSE,168,0.0,1.0,97,0.00,,,0.00,WeatherCatV1.10B1784,2013-02-04 15:02:00,
2013-02-04 07:07:00,41.5,40.7,30.08,ESE,117,1.0,1.0,97,0.00,,,0.00,WeatherCatV1.10B1784,2013-02-04 15:07:00,
2013-02-04 07:12:00,41.5,40.7,30.08,East,91,1.0,2.0,97,0.00,,,0.00,WeatherCatV1.10B1784,2013-02-04 15:12:00,
2013-02-04 07:17:00,41.7,40.9,30.09,South,191,2.0,2.0,97,0.00,,,0.00,WeatherCatV1.10B1784,2013-02-04 15:17:00,
2013-02-04 07:22:00,41.6,40.8,30.09,SSW,193,1.0,1.0,97,0.00,,,0.00,WeatherCatV1.10B1784,2013-02-04 15:22:00,
2013-02-04 07:27:00,41.5,40.7,30.09,SW,215,0.0,2.0,97,0.00,,,0.00,WeatherCatV1.10B1784,2013-02-04 15:27:00,
2013-02-04 07:32:00,41.4,40.6,30.09,SW,217,0.0,0.0,97,0.00,,,0.00,WeatherCatV1.10B1784,2013-02-04 15:32:00,
2013-02-04 07:37:00,41.4,40.6,30.09,SW,217,0.0,0.0,97,0.00,,,0.00,WeatherCatV1.10B1784,2013-02-04 15:37:00,
2013-02-04 07:42:00,41.3,40.5,30.09,South,191,0.0,1.0,97,0.00,,,0.00,WeatherCatV1.10B1784,2013-02-04 15:42:00,
2013-02-04 07:47:00,41.2,40.4,30.09,SW,220,0.0,0.0,97,0.00,,,0.00,WeatherCatV1.10B1784,2013-02-04 15:47:00,
2013-02-04 07:52:00,41.1,40.3,30.09,SSE,167,0.0,1.0,97,0.00,,,0.00,WeatherCatV1.10B1784,2013-02-04 15:52:00,
2013-02-04 07:57:00,41.1,40.3,30.09,SSW,205,1.0,1.0,97,0.00,,,0.00,WeatherCatV1.10B1784,2013-02-04 15:57:00,
2013-02-04 08:02:00,41.2,40.4,30.09,SW,217,0.0,1.0,97,0.00,,,0.00,WeatherCatV1.10B1784,2013-02-04 16:02:00,
2013-02-04 08:07:00,41.2,40.4,30.09,SW,217,0.0,0.0,97,0.00,,,0.00,WeatherCatV1.10B1784,2013-02-04 16:07:00,
2013-02-04 08:12:00,41.3,40.5,30.09,SW,217,0.0,1.0,97,0.00,,,0.00,WeatherCatV1.10B1784,2013-02-04 16:12:00,
2013-02-04 08:17:00,41.3,40.5,30.09,SW,217,0.0,0.0,97,0.00,,,0.00,WeatherCatV1.10B1784,2013-02-04 16:17:00,
2013-02-04 08:22:00,41.3,40.5,30.09,SW,217,0.0,1.0,97,0.00,,,0.00,WeatherCatV1.10B1784,2013-02-04 16:22:00,
2013-02-04 08:27:00,41.3,40.5,30.09,SW,217,0.0,0.0,97,0.00,,,0.00,WeatherCatV1.10B1784,2013-02-04 16:27:00,
2013-02-04 08:32:00,41.3,40.5,30.09,SW,217,0.0,0.0,97,0.00,,,0.00,WeatherCatV1.10B1784,2013-02-04 16:32:00,
2013-02-04 08:37:00,41.5,40.7,30.09,SW,217,0.0,1.0,97,0.00,,,0.00,WeatherCatV1.10B1784,2013-02-04 16:37:00,
2013-02-04 08:42:00,41.6,40.8,30.09,SW,217,0.0,0.0,97,0.00,,,0.00,WeatherCatV1.10B1784,2013-02-04 16:42:00,
2013-02-04 08:47:00,41.8,41.0,30.09,SW,216,2.0,2.0,97,0.00,,,0.00,WeatherCatV1.10B1784,2013-02-04 16:47:00,
2013-02-04 08:52:00,41.8,41.0,30.10,SW,217,2.0,2.0,97,0.00,,,0.00,WeatherCatV1.10B1784,2013-02-04 16:52:00,
2013-02-04 08:57:00,41.8,41.0,30.09,SW,217,0.0,0.0,97,0.00,,,0.00,WeatherCatV1.10B1784,2013-02-04 16:57:00,
2013-02-04 09:02:00,41.9,41.1,30.09,South,179,0.0,0.0,97,0.00,,,0.00,WeatherCatV1.10B1784,2013-02-04 17:02:00,
2013-02-04 09:07:00,42.0,41.2,30.10,South,180,0.0,0.0,97,0.00,,,0.00,WeatherCatV1.10B1784,2013-02-04 17:07:00,
2013-02-04 09:12:00,42.0,41.2,30.09,South,180,0.0,1.0,97,0.00,,,0.00,WeatherCatV1.10B1784,2013-02-04 17:12:00,
2013-02-04 09:17:00,42.2,41.4,30.09,SSW,195,0.0,3.0,97,0.00,,,0.00,WeatherCatV1.10B1784,2013-02-04 17:17:00,
2013-02-04 09:22:00,42.3,41.5,30.09,SSE,158,1.0,1.0,97,0.00,,,0.00,WeatherCatV1.10B1784,2013-02-04 17:22:00,
2013-02-04 09:27:00,42.6,41.8,30.09,East,100,4.0,4.0,97,0.00,,,0.00,WeatherCatV1.10B1784,2013-02-04 17:27:00,
2013-02-04 09:32:00,43.0,41.9,30.09,East,96,2.0,4.0,96,0.00,,,0.00,WeatherCatV1.10B1784,2013-02-04 17:32:00,
2013-02-04 09:37:00,43.3,42.2,30.09,ENE,72,2.0,2.0,96,0.00,,,0.00,WeatherCatV1.10B1784,2013-02-04 17:37:00,
2013-02-04 09:42:00,43.7,42.4,30.09,East,84,1.0,1.0,95,0.00,,,0.00,WeatherCatV1.10B1784,2013-02-04 17:42:00,
2013-02-04 09:47:00,43.7,42.1,30.08,ENE,74,3.0,4.0,94,0.00,,,0.00,WeatherCatV1.10B1784,2013-02-04 17:47:00,
2013-02-04 09:52:00,43.8,42.2,30.09,SE,134,1.0,6.0,94,0.00,,,0.00,WeatherCatV1.10B1784,2013-02-04 17:52:00,
2013-02-04 09:57:00,43.9,42.0,30.09,ESE,114,4.0,5.0,93,0.00,,,0.00,WeatherCatV1.10B1784,2013-02-04 17:57:00,
2013-02-04 10:02:00,43.9,42.0,30.09,ENE,63,2.0,3.0,93,0.00,,,0.00,WeatherCatV1.10B1784,2013-02-04 18:02:00,
2013-02-04 10:07:00,44.0,41.8,30.09,ESE,117,1.0,5.0,92,0.00,,,0.00,WeatherCatV1.10B1784,2013-02-04 18:07:00,
2013-02-04 10:12:00,44.0,41.8,30.09,ENE,70,1.0,4.0,92,0.00,,,0.00,WeatherCatV1.10B1784,2013-02-04 18:12:00,
2013-02-04 10:17:00,44.0,41.8,30.09,NE,41,2.0,5.0,92,0.00,,,0.00,WeatherCatV1.10B1784,2013-02-04 18:17:00,
2013-02-04 10:22:00,43.7,41.8,30.09,SE,143,3.0,3.0,93,0.00,,,0.00,WeatherCatV1.10B1784,2013-02-04 18:22:00,
2013-02-04 10:27:00,43.7,41.8,30.10,ESE,111,3.0,4.0,93,0.00,,,0.00,WeatherCatV1.10B1784,2013-02-04 18:27:00,
2013-02-04 10:32:00,43.7,41.8,30.10,ESE,105,0.0,2.0,93,0.00,,,0.00,WeatherCatV1.10B1784,2013-02-04 18:32:00,
2013-02-04 10:37:00,43.9,42.3,30.09,East,101,3.0,4.0,94,0.00,,,0.00,WeatherCatV1.10B1784,2013-02-04 18:37:00,
2013-02-04 10:42:00,43.9,42.0,30.09,ENE,73,3.0,6.0,93,0.00,,,0.00,WeatherCatV1.10B1784,2013-02-04 18:42:00,
2013-02-04 10:47:00,44.0,42.4,30.09,East,84,2.0,3.0,94,0.00,,,0.00,WeatherCatV1.10B1784,2013-02-04 18:47:00,
2013-02-04 10:52:00,44.0,42.1,30.09,East,98,1.0,4.0,93,0.00,,,0.00,WeatherCatV1.10B1784,2013-02-04 18:52:00,
2013-02-04 10:57:00,44.2,42.6,30.09,East,82,2.0,4.0,94,0.00,,,0.00,WeatherCatV1.10B1784,2013-02-04 18:57:00,
2013-02-04 11:02:00,44.4,42.8,30.09,East,82,0.0,4.0,94,0.00,,,0.00,WeatherCatV1.10B1784,2013-02-04 19:02:00,
2013-02-04 11:07:00,44.5,42.6,30.10,ESE,107,4.0,7.0,93,0.00,,,0.00,WeatherCatV1.10B1784,2013-02-04 19:07:00,
2013-02-04 11:12:00,44.5,42.6,30.09,ESE,110,6.0,7.0,93,0.00,,,0.00,WeatherCatV1.10B1784,2013-02-04 19:12:00,
2013-02-04 11:17:00,44.7,43.1,30.09,ESE,120,2.0,5.0,94,0.00,,,0.00,WeatherCatV1.10B1784,2013-02-04 19:17:00,
2013-02-04 11:22:00,45.0,43.4,30.09,SSW,205,1.0,4.0,94,0.00,,,0.00,WeatherCatV1.10B1784,2013-02-04 19:22:00,
2013-02-04 11:27:00,45.2,43.3,30.09,SSW,194,2.0,5.0,93,0.00,,,0.00,WeatherCatV1.10B1784,2013-02-04 19:27:00,
2013-02-04 11:32:00,45.3,43.4,30.09,SE,124,1.0,4.0,93,0.00,,,0.00,WeatherCatV1.10B1784,2013-02-04 19:32:00,
2013-02-04 11:37:00,45.4,43.5,30.09,SE,136,1.0,2.0,93,0.00,,,0.00,WeatherCatV1.10B1784,2013-02-04 19:37:00,
2013-02-04 11:42:00,45.5,43.6,30.09,East,82,3.0,3.0,93,0.00,,,0.00,WeatherCatV1.10B1784,2013-02-04 19:42:00,
2013-02-04 11:47:00,45.5,43.6,30.08,SSW,203,1.0,4.0,93,0.00,,,0.00,WeatherCatV1.10B1784,2013-02-04 19:47:00,
2013-02-04 11:52:00,45.6,43.7,30.08,ENE,65,1.0,3.0,93,0.00,,,0.00,WeatherCatV1.10B1784,2013-02-04 19:52:00,
2013-02-04 11:57:00,45.7,43.5,30.08,SSE,154,2.0,3.0,92,0.00,,,0.00,WeatherCatV1.10B1784,2013-02-04 19:57:00,
2013-02-04 12:02:00,45.8,43.6,30.08,South,172,4.0,5.0,92,0.00,,,0.00,WeatherCatV1.10B1784,2013-02-04 20:02:00,
2013-02-04 12:07:00,45.7,43.2,30.08,South,187,2.0,6.0,91,0.00,,,0.00,WeatherCatV1.10B1784,2013-02-04 20:07:00,
2013-02-04 12:12:00,45.8,43.3,30.08,South,172,5.0,6.0,91,0.00,,,0.00,WeatherCatV1.10B1784,2013-02-04 20:12:00,
2013-02-04 12:17:00,45.7,43.2,30.08,South,172,6.0,6.0,91,0.00,,,0.00,WeatherCatV1.10B1784,2013-02-04 20:17:00,
2013-02-04 12:23:00,45.6,43.1,30.07,South,186,1.0,5.0,91,0.00,,,0.00,WeatherCatV1.10B1784,2013-02-04 20:23:00,
2013-02-04 12:28:00,45.6,43.1,30.08,ESE,110,3.0,4.0,91,0.00,,,0.00,WeatherCatV1.10B1784,2013-02-04 20:28:00,
2013-02-04 12:33:00,45.6,43.1,30.08,ESE,102,5.0,8.0,91,0.00,,,0.00,WeatherCatV1.10B1784,2013-02-04 20:33:00,
2013-02-04 12:38:00,45.7,43.2,30.07,SSE,148,3.0,6.0,91,0.00,,,0.00,WeatherCatV1.10B1784,2013-02-04 20:38:00,
2013-02-04 12:43:00,45.9,43.7,30.06,ENE,63,2.0,5.0,92,0.00,,,0.00,WeatherCatV1.10B1784,2013-02-04 20:43:00,
2013-02-04 12:48:00,46.1,43.6,30.06,ESE,110,5.0,8.0,91,0.00,,,0.00,WeatherCatV1.10B1784,2013-02-04 20:48:00,
2013-02-04 12:53:00,46.4,43.9,30.06,SE,137,2.0,8.0,91,0.00,,,0.00,WeatherCatV1.10B1784,2013-02-04 20:53:00,
2013-02-04 12:58:00,46.8,44.3,30.06,SSE,152,1.0,3.0,91,0.00,,,0.00,WeatherCatV1.10B1784,2013-02-04 20:58:00,
2013-02-04 13:03:00,47.1,44.6,30.06,SE,146,0.0,3.0,91,0.00,,,0.00,WeatherCatV1.10B1784,2013-02-04 21:03:00,
2013-02-04 13:08:00,47.4,44.9,30.06,SSE,150,2.0,3.0,91,0.00,,,0.00,WeatherCatV1.10B1784,2013-02-04 21:08:00,
2013-02-04 13:13:00,47.3,44.5,30.06,ESE,114,1.0,4.0,90,0.00,,,0.00,WeatherCatV1.10B1784,2013-02-04 21:13:00,
2013-02-04 13:18:00,47.4,44.6,30.05,SE,146,0.0,1.0,90,0.00,,,0.00,WeatherCatV1.10B1784,2013-02-04 21:18:00,
2013-02-04 13:23:00,47.3,44.2,30.05,East,101,3.0,6.0,89,0.00,,,0.00,WeatherCatV1.10B1784,2013-02-04 21:23:00,
2013-02-04 13:28:00,47.1,44.0,30.05,SE,124,1.0,6.0,89,0.00,,,0.00,WeatherCatV1.10B1784,2013-02-04 21:28:00,
2013-02-04 13:33:00,47.1,44.0,30.05,East,82,2.0,5.0,89,0.00,,,0.00,WeatherCatV1.10B1784,2013-02-04 21:33:00,
2013-02-04 13:38:00,47.3,44.5,30.05,SE,132,3.0,8.0,90,0.00,,,0.00,WeatherCatV1.10B1784,2013-02-04 21:38:00,
2013-02-04 13:43:00,47.6,44.5,30.05,ENE,75,5.0,10.0,89,0.00,,,0.00,WeatherCatV1.10B1784,2013-02-04 21:43:00,
2013-02-04 13:48:00,47.7,44.3,30.04,ENE,60,5.0,8.0,88,0.00,,,0.00,WeatherCatV1.10B1784,2013-02-04 21:48:00,
2013-02-04 13:53:00,47.6,44.5,30.04,ENE,60,6.0,8.0,89,0.00,,,0.00,WeatherCatV1.10B1784,2013-02-04 21:53:00,
2013-02-04 13:58:00,47.5,44.4,30.04,East,100,4.0,7.0,89,0.00,,,0.00,WeatherCatV1.10B1784,2013-02-04 21:58:00,
2013-02-04 14:03:00,47.8,44.7,30.04,East,95,2.0,6.0,89,0.00,,,0.00,WeatherCatV1.10B1784,2013-02-04 22:03:00,
2013-02-04 14:08:00,47.9,44.5,30.04,East,79,4.0,8.0,88,0.00,,,0.00,WeatherCatV1.10B1784,2013-02-04 22:08:00,
2013-02-04 14:13:00,47.5,43.8,30.03,NE,53,4.0,7.0,87,0.00,,,0.00,WeatherCatV1.10B1784,2013-02-04 22:13:00,
2013-02-04 14:18:00,47.2,43.8,30.03,ESE,112,6.0,6.0,88,0.00,,,0.00,WeatherCatV1.10B1784,2013-02-04 22:18:00,
2013-02-04 14:23:00,47.2,44.1,30.03,SE,132,6.0,10.0,89,0.00,,,0.00,WeatherCatV1.10B1784,2013-02-04 22:23:00,
2013-02-04 14:28:00,47.1,43.7,30.03,ESE,119,6.0,11.0,88,0.00,,,0.00,WeatherCatV1.10B1784,2013-02-04 22:28:00,
2013-02-04 14:33:00,47.1,44.0,30.03,SSE,163,2.0,8.0,89,0.00,,,0.00,WeatherCatV1.10B1784,2013-02-04 22:33:00,
2013-02-04 14:38:00,47.3,43.9,30.02,ESE,110,4.0,9.0,88,0.00,,,0.00,WeatherCatV1.10B1784,2013-02-04 22:38:00,
2013-02-04 14:43:00,46.9,43.8,30.02,ESE,113,10.0,10.0,89,0.00,,,0.00,WeatherCatV1.10B1784,2013-02-04 22:43:00,
2013-02-04 14:48:00,46.5,43.7,30.02,ESE,111,4.0,12.0,90,0.00,,,0.00,WeatherCatV1.10B1784,2013-02-04 22:48:00,
2013-02-04 14:53:00,46.4,43.6,30.02,ESE,116,5.0,13.0,90,0.00,,,0.00,WeatherCatV1.10B1784,2013-02-04 22:53:00,
2013-02-04 14:58:00,46.3,43.5,30.02,SE,142,6.0,11.0,90,0.00,,,0.00,WeatherCatV1.10B1784,2013-02-04 22:58:00,
2013-02-04 15:03:00,46.3,43.5,30.02,ESE,116,12.0,14.0,90,0.00,,,0.00,WeatherCatV1.10B1784,2013-02-04 23:03:00,
2013-02-04 15:08:00,46.3,43.8,30.01,South,172,8.0,12.0,91,0.00,,,0.00,WeatherCatV1.10B1784,2013-02-04 23:08:00,
2013-02-04 15:13:00,46.4,43.6,30.01,ESE,115,6.0,9.0,90,0.00,,,0.00,WeatherCatV1.10B1784,2013-02-04 23:13:00,
2013-02-04 15:18:00,46.6,43.8,30.01,ESE,117,1.0,6.0,90,0.00,,,0.00,WeatherCatV1.10B1784,2013-02-04 23:18:00,
2013-02-04 15:23:00,46.7,43.9,30.01,SE,124,3.0,6.0,90,0.00,,,0.00,WeatherCatV1.10B1784,2013-02-04 23:23:00,
2013-02-04 15:28:00,46.7,43.6,30.01,ESE,114,4.0,7.0,89,0.00,,,0.00,WeatherCatV1.10B1784,2013-02-04 23:28:00,
2013-02-04 15:33:00,46.6,43.8,30.01,ESE,116,7.0,8.0,90,0.00,,,0.00,WeatherCatV1.10B1784,2013-02-04 23:33:00,
2013-02-04 15:38:00,46.3,43.5,30.01,ESE,102,6.0,11.0,90,0.00,,,0.00,WeatherCatV1.10B1784,2013-02-04 23:38:00,
2013-02-04 15:43:00,46.1,43.3,30.01,ESE,121,5.0,8.0,90,0.00,,,0.00,WeatherCatV1.10B1784,2013-02-04 23:43:00,
2013-02-04 15:48:00,45.9,43.4,30.01,NE,51,2.0,8.0,91,0.00,,,0.00,WeatherCatV1.10B1784,2013-02-04 23:48:00,
2013-02-04 15:53:00,45.9,43.4,30.01,East,98,5.0,8.0,91,0.00,,,0.00,WeatherCatV1.10B1784,2013-02-04 23:53:00,
2013-02-04 15:58:00,45.8,43.0,30.01,ENE,70,2.0,9.0,90,0.00,,,0.00,WeatherCatV1.10B1784,2013-02-04 23:58:00,
2013-02-04 16:03:00,45.7,42.9,30.01,SE,141,6.0,11.0,90,0.00,,,0.00,WeatherCatV1.10B1784,2013-02-05 00:03:00,
2013-02-04 16:08:00,45.7,42.9,30.01,SE,134,3.0,8.0,90,0.00,,,0.00,WeatherCatV1.10B1784,2013-02-05 00:08:00,
2013-02-04 16:13:00,45.5,42.7,30.01,ESE,107,4.0,9.0,90,0.00,,,0.00,WeatherCatV1.10B1784,2013-02-05 00:13:00,
2013-02-04 16:18:00,45.4,42.9,30.01,SSE,166,6.0,11.0,91,0.00,,,0.00,WeatherCatV1.10B1784,2013-02-05 00:18:00,
2013-02-04 16:23:00,45.3,42.8,30.01,SE,137,7.0,8.0,91,0.00,,,0.00,WeatherCatV1.10B1784,2013-02-05 00:23:00,
2013-02-04 16:28:00,45.2,42.7,30.00,SE,129,8.0,12.0,91,0.00,,,0.00,WeatherCatV1.10B1784,2013-02-05 00:28:00,
2013-02-04 16:33:00,45.1,42.6,30.00,SE,131,6.0,6.0,91,0.00,,,0.00,WeatherCatV1.10B1784,2013-02-05 00:33:00,
2013-02-04 16:38:00,45.0,42.8,30.00,ENE,74,4.0,10.0,92,0.00,,,0.00,WeatherCatV1.10B1784,2013-02-05 00:38:00,
2013-02-04 16:43:00,44.8,42.6,29.99,ESE,113,4.0,10.0,92,0.00,,,0.00,WeatherCatV1.10B1784,2013-02-05 00:43:00,
2013-02-04 16:48:00,44.7,42.5,29.99,ESE,121,9.0,9.0,92,0.00,,,0.00,WeatherCatV1.10B1784,2013-02-05 00:48:00,
2013-02-04 16:53:00,44.6,42.4,29.99,SE,141,5.0,9.0,92,0.00,,,0.00,WeatherCatV1.10B1784,2013-02-05 00:53:00,
2013-02-04 16:58:00,44.6,42.4,29.99,East,98,4.0,8.0,92,0.00,,,0.00,WeatherCatV1.10B1784,2013-02-05 00:58:00,
2013-02-04 17:03:00,44.5,42.3,29.99,East,88,5.0,12.0,92,0.00,,,0.00,WeatherCatV1.10B1784,2013-02-05 01:03:00,
2013-02-04 17:08:00,44.5,42.3,29.98,ESE,103,5.0,9.0,92,0.00,,,0.00,WeatherCatV1.10B1784,2013-02-05 01:08:00,
2013-02-04 17:13:00,44.4,42.2,29.98,ENE,68,7.0,9.0,92,0.00,,,0.00,WeatherCatV1.10B1784,2013-02-05 01:13:00,
2013-02-04 17:18:00,44.4,42.2,29.98,ESE,114,3.0,8.0,92,0.00,,,0.00,WeatherCatV1.10B1784,2013-02-05 01:18:00,
2013-02-04 17:23:00,44.4,42.2,29.98,East,93,7.0,10.0,92,0.00,,,0.00,WeatherCatV1.10B1784,2013-02-05 01:23:00,
2013-02-04 17:28:00,44.5,42.3,29.98,SE,136,6.0,11.0,92,0.00,,,0.00,WeatherCatV1.10B1784,2013-02-05 01:28:00,
2013-02-04 17:33:00,44.4,42.2,29.98,ESE,111,4.0,10.0,92,0.00,,,0.00,WeatherCatV1.10B1784,2013-02-05 01:33:00,
2013-02-04 17:38:00,44.4,42.2,29.98,ESE,110,5.0,9.0,92,0.00,,,0.00,WeatherCatV1.10B1784,2013-02-05 01:38:00,
2013-02-04 17:43:00,44.4,42.2,29.97,ESE,102,6.0,9.0,92,0.00,,,0.00,WeatherCatV1.10B1784,2013-02-05 01:43:00,
2013-02-04 17:48:00,44.4,42.5,29.97,ESE,121,4.0,10.0,93,0.00,,,0.00,WeatherCatV1.10B1784,2013-02-05 01:48:00,
2013-02-04 17:53:00,44.3,42.4,29.96,ESE,120,8.0,11.0,93,0.00,,,0.00,WeatherCatV1.10B1784,2013-02-05 01:53:00,
2013-02-04 17:58:00,44.3,42.4,29.97,ESE,117,11.0,11.0,93,0.00,,,0.00,WeatherCatV1.10B1784,2013-02-05 01:58:00,
2013-02-04 18:03:00,44.3,42.4,29.96,ESE,116,10.0,12.0,93,0.00,,,0.00,WeatherCatV1.10B1784,2013-02-05 02:03:00,
2013-02-04 18:08:00,44.3,42.4,29.96,SE,129,6.0,11.0,93,0.00,,,0.00,WeatherCatV1.10B1784,2013-02-05 02:08:00,
2013-02-04 18:13:00,44.3,42.1,29.96,East,93,5.0,10.0,92,0.00,,,0.00,WeatherCatV1.10B1784,2013-02-05 02:13:00,
2013-02-04 18:18:00,44.3,42.1,29.95,SSE,155,7.0,11.0,92,0.00,,,0.00,WeatherCatV1.10B1784,2013-02-05 02:18:00,
2013-02-04 18:23:00,44.3,42.1,29.95,ESE,116,6.0,12.0,92,0.00,,,0.00,WeatherCatV1.10B1784,2013-02-05 02:23:00,
2013-02-04 18:28:00,44.3,42.1,29.95,ESE,107,5.0,11.0,92,0.00,,,0.00,WeatherCatV1.10B1784,2013-02-05 02:28:00,
2013-02-04 18:33:00,44.3,42.1,29.95,SE,146,4.0,9.0,92,0.00,,,0.00,WeatherCatV1.10B1784,2013-02-05 02:33:00,
2013-02-04 18:38:00,44.3,41.8,29.94,ESE,113,7.0,7.0,91,0.00,,,0.00,WeatherCatV1.10B1784,2013-02-05 02:38:00,
2013-02-04 18:43:00,44.3,41.8,29.95,SE,134,5.0,11.0,91,0.00,,,0.00,WeatherCatV1.10B1784,2013-02-05 02:43:00,
2013-02-04 18:48:00,44.4,41.9,29.95,ESE,111,6.0,11.0,91,0.00,,,0.00,WeatherCatV1.10B1784,2013-02-05 02:48:00,
2013-02-04 18:53:00,44.4,41.9,29.95,ESE,116,4.0,10.0,91,0.00,,,0.00,WeatherCatV1.10B1784,2013-02-05 02:53:00,
2013-02-04 18:58:00,44.4,41.9,29.94,SE,124,7.0,10.0,91,0.00,,,0.00,WeatherCatV1.10B1784,2013-02-05 02:58:00,
2013-02-04 19:03:00,44.4,41.9,29.94,SE,143,5.0,10.0,91,0.00,,,0.00,WeatherCatV1.10B1784,2013-02-05 03:03:00,
2013-02-04 19:08:00,44.4,41.9,29.94,ENE,74,3.0,6.0,91,0.00,,,0.00,WeatherCatV1.10B1784,2013-02-05 03:08:00,
2013-02-04 19:13:00,44.4,41.9,29.94,East,99,3.0,8.0,91,0.00,,,0.00,WeatherCatV1.10B1784,2013-02-05 03:13:00,
2013-02-04 19:18:00,44.4,41.9,29.93,East,96,3.0,8.0,91,0.00,,,0.00,WeatherCatV1.10B1784,2013-02-05 03:18:00,
2013-02-04 19:23:00,44.4,41.9,29.94,ESE,105,5.0,10.0,91,0.00,,,0.00,WeatherCatV1.10B1784,2013-02-05 03:23:00,
2013-02-04 19:28:00,44.3,42.1,29.94,ESE,114,11.0,11.0,92,0.00,,,0.00,WeatherCatV1.10B1784,2013-02-05 03:28:00,
2013-02-04 19:33:00,44.3,42.1,29.93,East,89,4.0,11.0,92,0.00,,,0.00,WeatherCatV1.10B1784,2013-02-05 03:33:00,
2013-02-04 19:38:00,44.3,41.8,29.93,East,96,10.0,15.0,91,0.00,,,0.00,WeatherCatV1.10B1784,2013-02-05 03:38:00,
2013-02-04 19:43:00,44.3,41.8,29.92,ESE,110,4.0,10.0,91,0.00,,,0.00,WeatherCatV1.10B1784,2013-02-05 03:43:00,
2013-02-04 19:48:00,44.3,41.8,29.92,ENE,77,4.0,13.0,91,0.00,,,0.00,WeatherCatV1.10B1784,2013-02-05 03:48:00,
2013-02-04 19:53:00,44.3,41.8,29.92,SE,131,6.0,9.0,91,0.00,,,0.00,WeatherCatV1.10B1784,2013-02-05 03:53:00,
2013-02-04 19:58:00,44.3,41.8,29.92,ESE,117,15.0,15.0,91,0.00,,,0.00,WeatherCatV1.10B1784,2013-02-05 03:58:00,
2013-02-04 20:03:00,44.2,41.7,29.92,SE,129,7.0,12.0,91,0.00,,,0.00,WeatherCatV1.10B1784,2013-02-05 04:03:00,
2013-02-04 20:08:00,44.2,41.7,29.91,SSE,153,9.0,12.0,91,0.00,,,0.00,WeatherCatV1.10B1784,2013-02-05 04:08:00,
2013-02-04 20:13:00,44.2,41.7,29.91,ENE,65,5.0,11.0,91,0.00,,,0.00,WeatherCatV1.10B1784,2013-02-05 04:13:00,
2013-02-04 20:18:00,44.2,42.0,29.91,ESE,121,5.0,11.0,92,0.00,,,0.00,WeatherCatV1.10B1784,2013-02-05 04:18:00,
2013-02-04 20:23:00,44.1,41.9,29.90,SE,134,7.0,12.0,92,0.00,,,0.00,WeatherCatV1.10B1784,2013-02-05 04:23:00,
2013-02-04 20:28:00,44.1,41.9,29.90,SE,134,6.0,11.0,92,0.00,,,0.00,WeatherCatV1.10B1784,2013-02-05 04:28:00,
2013-02-04 20:33:00,44.1,41.9,29.90,ESE,122,8.0,13.0,92,0.00,,,0.01,WeatherCatV1.10B1784,2013-02-05 04:33:00,
2013-02-04 20:38:00,44.0,41.8,29.90,ESE,118,8.0,13.0,92,0.00,,,0.01,WeatherCatV1.10B1784,2013-02-05 04:38:00,
2013-02-04 20:43:00,44.0,41.8,29.90,ESE,119,7.0,16.0,92,0.00,,,0.01,WeatherCatV1.10B1784,2013-02-05 04:43:00,
2013-02-04 20:48:00,43.9,41.7,29.89,SE,139,11.0,13.0,92,0.00,,,0.01,WeatherCatV1.10B1784,2013-02-05 04:48:00,
2013-02-04 20:53:00,43.9,41.7,29.89,SE,127,6.0,11.0,92,0.00,,,0.01,WeatherCatV1.10B1784,2013-02-05 04:53:00,
2013-02-04 20:58:00,44.0,41.8,29.89,ESE,108,4.0,14.0,92,0.00,,,0.01,WeatherCatV1.10B1784,2013-02-05 04:58:00,
2013-02-04 21:00:00,44.0,41.8,29.89,ESE,108,11.0,11.0,92,0.00,,,0.01,WeatherCatV1.10B1784,2013-02-05 05:00:00,
2013-02-04 21:05:00,44.1,41.9,29.88,East,97,10.0,10.0,92,0.00,,,0.01,WeatherCatV1.10B1784,2013-02-05 05:05:00,
2013-02-04 21:10:00,44.1,41.9,29.88,ESE,114,7.0,17.0,92,0.00,,,0.01,WeatherCatV1.10B1784,2013-02-05 05:10:00,
2013-02-04 21:15:00,44.1,41.9,29.88,SSE,154,8.0,11.0,92,0.00,,,0.01,WeatherCatV1.10B1784,2013-02-05 05:15:00,
2013-02-04 21:20:00,44.1,41.9,29.88,SE,143,6.0,10.0,92,0.00,,,0.01,WeatherCatV1.10B1784,2013-02-05 05:20:00,
2013-02-04 21:25:00,44.2,42.0,29.88,SE,131,4.0,8.0,92,0.00,,,0.01,WeatherCatV1.10B1784,2013-02-05 05:25:00,
2013-02-04 21:30:00,44.2,42.0,29.88,ESE,121,5.0,14.0,92,0.00,,,0.01,WeatherCatV1.10B1784,2013-02-05 05:30:00,
2013-02-04 21:35:00,44.2,42.0,29.87,SE,126,5.0,9.0,92,0.00,,,0.01,WeatherCatV1.10B1784,2013-02-05 05:35:00,
2013-02-04 21:40:00,44.2,42.0,29.87,SSE,160,3.0,12.0,92,0.00,,,0.01,WeatherCatV1.10B1784,2013-02-05 05:40:00,
2013-02-04 21:45:00,44.2,42.0,29.87,ESE,118,3.0,8.0,92,0.00,,,0.01,WeatherCatV1.10B1784,2013-02-05 05:45:00,
2013-02-04 21:50:00,44.1,41.9,29.87,SSE,162,1.0,6.0,92,0.00,,,0.01,WeatherCatV1.10B1784,2013-02-05 05:50:00,
2013-02-04 21:55:00,44.1,41.9,29.87,SSE,167,3.0,4.0,92,0.00,,,0.01,WeatherCatV1.10B1784,2013-02-05 05:55:00,
2013-02-04 22:00:00,44.1,42.2,29.87,SSW,210,0.0,6.0,93,0.00,,,0.01,WeatherCatV1.10B1784,2013-02-05 06:00:00,
2013-02-04 22:05:00,44.0,42.1,29.87,ESE,112,4.0,9.0,93,0.00,,,0.01,WeatherCatV1.10B1784,2013-02-05 06:05:00,
2013-02-04 22:10:00,44.0,42.1,29.86,ESE,118,4.0,9.0,93,0.00,,,0.01,WeatherCatV1.10B1784,2013-02-05 06:10:00,
2013-02-04 22:15:00,43.9,42.0,29.86,ESE,117,5.0,8.0,93,0.00,,,0.01,WeatherCatV1.10B1784,2013-02-05 06:15:00,
2013-02-04 22:20:00,43.9,42.0,29.86,SW,225,1.0,7.0,93,0.00,,,0.01,WeatherCatV1.10B1784,2013-02-05 06:20:00,
2013-02-04 22:25:00,43.9,42.0,29.86,SSE,150,6.0,8.0,93,0.00,,,0.01,WeatherCatV1.10B1784,2013-02-05 06:25:00,
2013-02-04 22:30:00,43.9,42.0,29.86,SE,134,1.0,8.0,93,0.00,,,0.01,WeatherCatV1.10B1784,2013-02-05 06:30:00,
2013-02-04 22:35:00,43.8,41.9,29.85,ESE,110,0.0,3.0,93,0.00,,,0.01,WeatherCatV1.10B1784,2013-02-05 06:35:00,
2013-02-04 22:40:00,43.8,41.9,29.85,SE,136,5.0,6.0,93,0.00,,,0.01,WeatherCatV1.10B1784,2013-02-05 06:40:00,
2013-02-04 22:45:00,43.8,42.2,29.84,SE,136,2.0,9.0,94,0.00,,,0.01,WeatherCatV1.10B1784,2013-02-05 06:45:00,
2013-02-04 22:50:00,43.8,42.2,29.84,East,86,3.0,5.0,94,0.00,,,0.01,WeatherCatV1.10B1784,2013-02-05 06:50:00,
2013-02-04 22:55:00,43.7,42.1,29.84,SE,134,4.0,8.0,94,0.00,,,0.01,WeatherCatV1.10B1784,2013-02-05 06:55:00,
2013-02-04 23:00:00,43.7,42.1,29.84,ESE,115,1.0,3.0,94,0.00,,,0.01,WeatherCatV1.10B1784,2013-02-05 07:00:00,
2013-02-04 23:05:00,43.7,42.1,29.84,ENE,78,2.0,4.0,94,0.00,,,0.01,WeatherCatV1.10B1784,2013-02-05 07:05:00,
2013-02-04 23:10:00,43.6,42.0,29.84,SE,143,5.0,5.0,94,0.00,,,0.01,WeatherCatV1.10B1784,2013-02-05 07:10:00,
2013-02-04 23:15:00,43.6,42.0,29.84,SE,143,4.0,8.0,94,0.00,,,0.01,WeatherCatV1.10B1784,2013-02-05 07:15:00,
2013-02-04 23:20:00,43.5,41.9,29.83,SE,136,3.0,6.0,94,0.00,,,0.01,WeatherCatV1.10B1784,2013-02-05 07:20:00,
2013-02-04 23:25:00,43.4,41.8,29.84,East,97,3.0,5.0,94,0.00,,,0.01,WeatherCatV1.10B1784,2013-02-05 07:25:00,
2013-02-04 23:30:00,43.4,41.8,29.83,South,188,2.0,5.0,94,0.00,,,0.01,WeatherCatV1.10B1784,2013-02-05 07:30:00,
2013-02-04 23:35:00,43.3,41.7,29.83,SSE,148,0.0,4.0,94,0.00,,,0.01,WeatherCatV1.10B1784,2013-02-05 07:35:00,
2013-02-04 23:40:00,43.3,41.7,29.82,South,185,2.0,3.0,94,0.00,,,0.01,WeatherCatV1.10B1784,2013-02-05 07:40:00,
2013-02-04 23:45:00,43.3,41.7,29.81,SSW,194,2.0,8.0,94,0.00,,,0.01,WeatherCatV1.10B1784,2013-02-05 07:45:00,
2013-02-04 23:50:00,43.3,42.0,29.81,SSW,204,2.0,5.0,95,0.00,,,0.01,WeatherCatV1.10B1784,2013-02-05 07:50:00,
2013-02-04 23:55:00,43.3,42.0,29.81,SW,226,1.0,4.0,95,0.00,,,0.01,WeatherCatV1.10B1784,2013-02-05 07:55:00,